Location: Observatoire
(46.1952°N, 5.3391°E)
Time: 15:16:58
(UTC+01:00)

Courier 1B - Pass Details

Date: 23 February 2026
Orbit: 962 x 1208 km, 28.3° (Epoch: 5 March)

Event Time Altitude Azimuth Distance (km) Brightness Sun altitude
Rises 19:10:59 0° 229° (SW) 3,772 11.5 -10.2°
Reaches altitude 10° 19:14:40 10° 211° (SSW) 2,868 10.4 -10.8°
Maximum altitude 19:18:58 17° 172° (S) 2,430 9.5 -11.6°
Drops below altitude 10° 19:23:24 10° 135° (SE) 2,984 9.6 -12.4°
Enters shadow 19:24:39 - 128° (SE) 3,270 9.8 -12.6°
